Weather History for Durango, CO

Change the Weather History Date:

Sunday, March 24, 2013

  Actual Average Record
Temperature  
Mean Temperature 25 °F 40 °F  
Max Temperature 42 °F 55 °F 70 °F (1998)
Min Temperature 8 °F 25 °F 8 °F (2013)
Degree Days  
Heating Degree Days 40 25  
Month to date heating degree days 639 684  
Since 1 July heating degree days 5985 5859  
Cooling Degree Days 0 0  
Month to date cooling degree days 0 0  
Year to date cooling degree days 0 0  
Moisture  
Dew Point 1 °F    
Average Humidity 45    
Maximum Humidity 73    
Minimum Humidity 17    
Precipitation  
Precipitation 0.00 in 0.04 in 0.43 in (1983)
Month to date precipitation 0.40 0.97  
Year to date precipitation 2.61 3.25  
Sea Level Pressure  
Sea Level Pressure 30.14 in    
Wind  
Wind Speed 11 mph (NW)    
Max Wind Speed 30 mph    
Max Gust Speed 41 mph    
Visibility 10 miles    
Events      
T = Trace of Precipitation, MM = Missing Value Source: NWS Daily Summary

Daily Weather History Graph

Daily Weather History Graph

Search for Another Location

Airport:

Trip Planner

Search our weather history database for the weather conditions in past years. The results will help you decide how hot, cold, wet, or windy it might be!

Date:

Astronomy

Mar. 24, 2013 Rise Set
Actual Time 7:08 AM MDT 7:26 PM MDT
Civil Twilight 6:42 AM MDT 7:52 PM MDT
Nautical Twilight 6:11 AM MDT 8:23 PM MDT
Astronomical Twilight 5:40 AM MDT 8:54 PM MDT
Moon 5:00 PM MDT (3/24) 5:16 AM MDT (3/24)
Length of Visible Light 13h 10m
Length of Day
12h 18m
Waxing Gibbous, 92% of the Moon is Illuminated
Mar 24
Waxing Gibbous
Mar 27
Full
Apr 2
Last Quarter
Apr 10
New
Apr 18
First Quarter

Hourly Weather History & Observations

Time (MDT) Temp. Windchill Dew Point Humidity Pressure Visibility Wind Dir Wind Speed Gust Speed Precip Events Conditions
12:53 AM 14.0 °F - 1.0 °F 56% 30.21 in 10.0 mi Calm Calm - N/A   Clear
1:53 AM 10.9 °F - 3.0 °F 70% 30.21 in 10.0 mi Calm Calm - N/A   Clear
2:53 AM 12.0 °F 5.9 °F 1.9 °F 64% 30.20 in 10.0 mi NE 3.5 mph - N/A   Clear
3:53 AM 12.0 °F 2.7 °F 1.0 °F 61% 30.19 in 10.0 mi North 5.8 mph - N/A   Clear
4:53 AM 10.9 °F - 1.0 °F 64% 30.19 in 10.0 mi Calm Calm - N/A   Clear
5:53 AM 10.0 °F - 1.9 °F 70% 30.22 in 10.0 mi Calm Calm - N/A   Clear
6:53 AM 9.0 °F 2.4 °F 1.0 °F 70% 30.24 in 10.0 mi NNE 3.5 mph - N/A   Clear
7:53 AM 12.0 °F - 3.0 °F 67% 30.25 in 10.0 mi Calm Calm - N/A   Clear
8:53 AM 19.0 °F - 3.0 °F 50% 30.23 in 10.0 mi Calm Calm - N/A   Clear
9:53 AM 25.0 °F 18.1 °F 1.0 °F 36% 30.18 in 10.0 mi SW 5.8 mph - N/A   Clear
10:53 AM 34.0 °F 22.7 °F 1.9 °F 26% 30.14 in 10.0 mi West 19.6 mph 28.8 mph N/A   Clear
11:53 AM 36.0 °F 23.9 °F 1.0 °F 23% 30.10 in 10.0 mi West 25.3 mph 41.4 mph N/A   Clear
12:53 PM 39.0 °F 28.5 °F 3.0 °F 22% 30.08 in 10.0 mi West 23.0 mph 32.2 mph N/A   Clear
1:53 PM 39.9 °F 30.2 °F 3.0 °F 21% 30.06 in 10.0 mi WSW 20.7 mph 34.5 mph N/A   Clear
2:53 PM 41.0 °F 31.9 °F 1.0 °F 19% 30.03 in 10.0 mi WNW 19.6 mph 34.5 mph N/A   Clear
3:53 PM 41.0 °F 31.1 °F -0.0 °F 18% 30.02 in 10.0 mi WNW 23.0 mph 36.8 mph N/A   Clear
4:53 PM 39.9 °F 30.2 °F -0.0 °F 19% 30.04 in 10.0 mi WNW 20.7 mph 28.8 mph N/A   Clear
6:53 PM 37.0 °F 26.7 °F -0.9 °F 20% 30.09 in 10.0 mi WNW 19.6 mph 29.9 mph N/A   Clear
7:53 PM 34.0 °F 23.8 °F -2.0 °F 22% 30.11 in 10.0 mi WNW 16.1 mph - N/A   Clear
8:53 PM 32.0 °F 22.1 °F -2.0 °F 23% 30.12 in 10.0 mi WNW 13.8 mph - N/A   Clear
9:53 PM 28.0 °F 24.2 °F -2.0 °F 27% 30.14 in 10.0 mi NNE 3.5 mph - N/A   Clear
10:53 PM 26.1 °F 18.4 °F 1.0 °F 34% 30.12 in 10.0 mi North 6.9 mph - N/A   Clear
11:53 PM 24.1 °F 19.7 °F 3.0 °F 40% 30.14 in 10.0 mi NNW 3.5 mph - N/A   Clear